Weather History for KMFR - March, 2012

Change the Weather History Date:

Tuesday, March 27, 2012

  Actual Average Record
Temperature  
Mean Temperature 49 °F 50 °F  
Max Temperature 57 °F 61 °F 83 °F (1994)
Min Temperature 41 °F 38 °F 24 °F (1944)
Degree Days  
Heating Degree Days 16 15  
Month to date heating degree days 554 458  
Since 1 July heating degree days 3748 3572  
Cooling Degree Days 0 0  
Month to date cooling degree days 0 0  
Year to date cooling degree days 0 0  
Moisture  
Dew Point 35 °F    
Average Humidity 66    
Maximum Humidity 89    
Minimum Humidity 43    
Precipitation  
Precipitation 0.18 in 0.05 in 0.92 in (1996)
Month to date precipitation 2.78 1.50  
Year to date precipitation 7.73 5.94  
Snow  
Snow 0.00 in 0.00 in - ()
Month to date snowfall 0.2 0.5  
Since 1 July snowfall 2.6 4.1  
Snow Depth 0.00 in    
Sea Level Pressure  
Sea Level Pressure 29.68 in    
Wind  
Wind Speed 16 mph (SSE)    
Max Wind Speed 33 mph    
Max Gust Speed 41 mph    
Visibility 10 miles    
Events Rain    
T = Trace of Precipitation, MM = Missing Value Source: NWS Daily Summary

Daily Weather History Graph

Daily Weather History Graph

Search for Another Location

Airport or City:

Trip Planner

Search our weather history database for the weather conditions in past years. The results will help you decide how hot, cold, wet, or windy it might be!

Date:

Astronomy

Mar. 27, 2012 Rise Set
Actual Time 7:01 AM PDT 7:32 PM PDT
Civil Twilight 6:33 AM PDT 8:00 PM PDT
Nautical Twilight 6:00 AM PDT 8:33 PM PDT
Astronomical Twilight 5:25 AM PDT 9:08 PM PDT
Moon 9:30 AM PDT (3/27) No Moon Set
Length of Visible Light 13h 27m
Length of Day
12h 30m
Waxing Crescent, 23% of the Moon is Illuminated
Mar 27
Waxing Crescent
Mar 30
First Quarter
Apr 6
Full
Apr 13
Last Quarter
Apr 21
New

Hourly Weather History & Observations

Time (PDT) Temp. Windchill Dew Point Humidity Pressure Visibility Wind Dir Wind Speed Gust Speed Precip Events Conditions
12:53 AM 50.0 °F - 30.9 °F 48% 29.75 in 10.0 mi SSE 24.2 mph 28.8 mph N/A   Overcast
1:53 AM 50.0 °F - 30.9 °F 48% 29.75 in 10.0 mi SSE 17.3 mph - N/A   Overcast
2:53 AM 50.0 °F - 32.0 °F 50% 29.73 in 10.0 mi SSE 16.1 mph - N/A   Overcast
3:53 AM 50.0 °F - 32.0 °F 50% 29.72 in 10.0 mi SSE 16.1 mph 24.2 mph 0.00 in   Mostly Cloudy
4:53 AM 48.9 °F - 34.0 °F 56% 29.73 in 10.0 mi SSE 17.3 mph 25.3 mph 0.00 in   Overcast
5:53 AM 48.9 °F - 34.0 °F 56% 29.70 in 10.0 mi SSE 16.1 mph 31.1 mph 0.00 in   Overcast
6:53 AM 48.9 °F - 33.1 °F 54% 29.70 in 10.0 mi SSE 27.6 mph 33.4 mph 0.00 in   Overcast
7:53 AM 48.0 °F - 35.1 °F 61% 29.71 in 10.0 mi SSE 15.0 mph 25.3 mph 0.00 in   Overcast
8:53 AM 50.0 °F - 34.0 °F 54% 29.71 in 10.0 mi SSE 19.6 mph 25.3 mph N/A   Overcast
9:53 AM 53.1 °F - 34.0 °F 48% 29.68 in 10.0 mi SSE 23.0 mph 32.2 mph N/A   Mostly Cloudy
10:53 AM 53.1 °F - 34.0 °F 48% 29.68 in 10.0 mi SSE 23.0 mph 34.5 mph N/A   Overcast
11:53 AM 55.0 °F - 36.0 °F 49% 29.65 in 10.0 mi SE 26.5 mph 34.5 mph N/A   Scattered Clouds
12:53 PM 55.9 °F - 35.1 °F 45% 29.62 in 10.0 mi SSE 23.0 mph 32.2 mph N/A   Overcast
1:53 PM 55.9 °F - 34.0 °F 44% 29.63 in 10.0 mi SW 9.2 mph 18.4 mph N/A   Mostly Cloudy
2:53 PM 55.9 °F - 35.1 °F 45% 29.61 in 10.0 mi South 16.1 mph 25.3 mph N/A   Overcast
3:53 PM 54.0 °F - 37.0 °F 53% 29.60 in 10.0 mi SE 20.7 mph 28.8 mph N/A   Overcast
4:53 PM 52.0 °F - 36.0 °F 54% 29.60 in 10.0 mi SE 18.4 mph 29.9 mph N/A   Overcast
5:53 PM 52.0 °F - 36.0 °F 54% 29.60 in 10.0 mi SE 19.6 mph 27.6 mph N/A   Overcast
6:53 PM 51.1 °F - 37.0 °F 59% 29.63 in 10.0 mi South 5.8 mph - 0.00 in Rain Light Rain
7:53 PM 48.0 °F - 39.0 °F 71% 29.63 in 10.0 mi SSW 5.8 mph - 0.00 in   Overcast
8:53 PM 48.0 °F - 36.0 °F 63% 29.63 in 10.0 mi South 10.4 mph 17.3 mph N/A   Mostly Cloudy
9:53 PM 46.0 °F 39.6 °F 39.0 °F 76% 29.69 in 10.0 mi WNW 15.0 mph - 0.01 in Rain Light Rain
10:53 PM 42.1 °F 40.2 °F 39.0 °F 89% 29.74 in 3.0 mi WNW 3.5 mph - 0.09 in Rain Heavy Rain
11:02 PM 42.8 °F 41.1 °F 39.2 °F 87% 29.73 in 4.0 mi South 3.5 mph - 0.02 in Rain Rain
11:53 PM 41.0 °F 39.0 °F 37.0 °F 86% 29.74 in 10.0 mi West 3.5 mph - 0.08 in Rain Light Rain